Retour au catalogue

STARLINK-34356

ActifCommunicationsVLEO
NORAD 64303·PAYLOAD·🇺🇸 United States

Lancé Jun 8, 2025 depuis Vandenberg Space Force Base

Loading…

Prochains Passages (prochaines 24 heures)

TLE

FraisSource: CelesTrak SupGP

Époque: Sep 14, 2026, 21:15 UTC

1 64303C 25123N   26257.88590278  .00020312  00000+0  70666-3 0  2570
2 64303  70.0002  75.9386 0003305 273.2577 154.6296 15.29565666    14

Suivez STARLINK-34356 en temps réel avec AllMySat

Download on the App Store